Regional Weather Roundup
Issued by NWS Grand Forks, ND

Home | Current Version | Previous Version | Text Only | Print | Product List | Glossary On
Versions: 1 2 3 4 5 6 7 8 9 10 11 12 13 14 15 16 17 18 19 20 21 22 23 24 25 26 27 28 29 30 31 32 33 34 35 36 37 38 39 40 41 42 43 44 45 46 47 48 49 50
000
ASUS43 KFGF 290910
RWRFGF
PRAIRIE TO PINES  WEATHER ROUNDUP
NATIONAL WEATHER SERVICE EASTERN NORTH DAKOTA/GRAND FORKS ND
400 AM CDT SUN MAR 29 2015

 **SATELLITE DATA USED TO AUGMENT SKY COVER AT AUTOMATED STATIONS**
 *****  WEATHER ACROSS EASTERN NORTH DAKOTA  *****

CITY           SKY/WX    TMP DP  RH WIND       PRES   REMARKS
GRAND FORKS    LGT RAIN  43  40  89 SW10      29.41F
GRAND FRKS AFB LGT RAIN  46  45  93 NW15      29.42S
GRAND FRKS NWS   N/A     41 N/A N/A SW12        N/A
DEVILS LAKE    CLOUDY    41  37  87 NW24G35   29.51R
FARGO          CLOUDY    41  37  86 S21       29.48F
WAHPETON ARPT  CLOUDY    37  32  81 S15       29.54F
$$

 ***** WEATHER ACROSS CENTRAL AND WESTERN NORTH DAKOTA  *****

CITY           SKY/WX    TMP DP  RH WIND       PRES   REMARKS
BISMARCK       RAIN      45  43  93 NW15G24   29.63R
MINOT          LGT RAIN  40  34  79 NW29G38   29.71R
JAMESTOWN      HVY RAIN  46  42  86 W26G36    29.51R FOG
MINOT AFB      CLOUDY    40  40  99 NW28G35   29.71R
GARRISON         N/A     40  37  89 NW30G40   29.71R
WILLISTON      PTCLDY    38  33  82 NW21G29   29.92R
DICKINSON      CLOUDY    39  36  89 NW30G43   29.82R
HETTINGER      LGT RAIN  40  38  93 NW33G46   29.83R
$$

 *****  OTHER AIRPORT OBSERVATIONS IN OUR AREA  *****

CITY           SKY/WX    TMP DP  RH WIND       PRES   REMARKS
WALHALLA       NOT AVBL
GRAFTON AIRPOR NOT AVBL
VALLEY CITY AR LGT RAIN  46  46 100 W23G31    29.48S
CANDO          NOT AVBL
CAVALIER APRT  CLOUDY    39  37  93 N25G39    29.47R
GWINNER        CLOUDY    45  45 100 SW14        N/A
ROLLA          CLOUDY    37  37 100 N30G40    29.58R
 ***** THE ABOVE OBSERVATIONS ARE NON NWS ARE NOT QUALITY
       CONTROLLED AND MAY MIS-REPORT RAIN FOR SNOW...
$$

  *****  WEATHER ACROSS NORTHERN MINNESOTA  *****

CITY           SKY/WX    TMP DP  RH WIND       PRES   REMARKS
FLAG ISLAND    LGT RAIN  34  32  93 S13       29.40F WCI  25
WARROAD        LGT RAIN  37  34  87 S10       29.41F
ROSEAU         LGT RAIN  39  34  81 S13       29.40F
HALLOCK        CLOUDY    39  37  93 W3        29.41R
THF RVR FALLS  CLOUDY    41  36  81 S22G32    29.42F
BAUDETTE       LGT RAIN  37  33  85 S14       29.43F
WASKISH        RAIN      37  34  87 S7        29.46F
CROOKSTON      CLOUDY    39  37  93 S25       29.44F
STEPHEN NDAWN    N/A     41  39  93 SW9         N/A
GREENBUSH NDAW   N/A     39  37  93 SW17        N/A
$$
  *****  WEATHER ACROSS CENTRAL AND WEST MINNESOTA  *****

CITY           SKY/WX    TMP DP  RH WIND       PRES   REMARKS
FOSSTON        RAIN      37  34  87 S23G31    29.46F
BEMIDJI        LGT RAIN  38  29  68 S18G25    29.49F
PARK RAPIDS    LGT RAIN  38  31  76 S15       29.55F
ELBOW LAKE     CLOUDY    37  33  87 S18       29.57F
WADENA         LGT RAIN  36  30  80 S17       29.57F
DETROIT LAKES  MIX PCPN  36  34  93 S18       29.52F
MOORHEAD       CLOUDY    39  39 100 S18       29.50S
FERGUS FALLS   CLOUDY    37  32  81 S15       29.58F
MORRIS MN      CLOUDY    37  34  87 S14       29.59F
STAPLES        CLOUDY    36  30  80 S18G26    29.60F
$$
  *****  WEATHER ELSEWHERE ACROSS MINNESOTA  *****

CITY           SKY/WX    TMP DP  RH WIND       PRES   REMARKS
DULUTH         MOCLDY    35  18  49 S20       29.69F WCI  24
INTRNTL FALLS  CLOUDY    38  25  59 S12G18    29.47F
ELY            CLOUDY    34  19  55 S15G29    29.58F WCI  24
CLOQUET        MOCLDY    36  18  48 S12G20    29.69F
WHEATON        CLOUDY    37  34  87 S12       29.58F
BRAINERD       CLOUDY    37  27  67 S18G26    29.64F
HIBBING        CLOUDY    34  19  54 S12G18    29.60F
ALEXANDRIA     MIX PCPN  37  31  78 S17G28    29.60F
SAINT CLOUD    LGT RAIN  35  30  82 S16       29.71F
MINNEAPOLIS    LGT RAIN  36  26  67 S21G26    29.80F
$$

  *****  WEATHER ACROSS SOUTH DAKOTA  *****

CITY           SKY/WX    TMP DP  RH WIND       PRES   REMARKS
SIOUX FALLS    PTCLDY    43  33  68 S16G23    29.67F
BROOKINGS      NOT AVBL
WATERTOWN      CLOUDY    44  34  67 SW15      29.62R
HURON          CLEAR     43  39  86 W9        29.68S
SISSETON         N/A     47  37  68 W22G33    29.54S
ABERDEEN       CLEAR     40  37  89 W10       29.61F
MITCHELL       PTCLDY    49  41  74 W9        29.71R
PIERRE         CLEAR     47  35  63 W14       29.76R
MOBRIDGE       CLOUDY    48  37  65 W20G26    29.66S
RAPID CITY     MOCLDY    49  31  49 NW44G54   29.91R
$$

  *****  SOME WEATHER IN NEARBY STATES *****

CITY           SKY/WX    TMP DP  RH WIND       PRES   REMARKS
GLASGOW MT     CLEAR     40  33  76 NW12      30.06R
GREAT FALLS MT CLEAR     40  28  62 SW14      30.16S
CHEYENNE WY    CLEAR     43  22  43 NW18G30   30.10R
SCOTTSBLUFF NE CLEAR     44  18  35 NW3       30.07R
OMAHA NE       CLOUDY    43  32  65 S25G31    29.83F
DES MOINES IA  MOCLDY    38  27  64 S15       29.95F
DAVENPORT IA   CLEAR     32  17  54 S22       30.09F WCI  19
CHICAGO IL     MOCLDY    27  15  61 S10       30.17F WCI  17
EAU CLAIRE WI  MOCLDY    33  15  47 S12       29.89F WCI  24
LA CROSSE WI   MOCLDY    36  18  48 S14       29.96F
$$

  *****  SOME NATIONAL WEATHER *****

CITY           SKY/WX    TMP DP  RH WIND       PRES   REMARKS
LA GUARDIA NY  MOCLDY    27  11  51 NW16G23   30.17R WCI  15
RALEIGH NC     CLEAR     28  12  51 CALM      30.33R
ATLANTA GA     CLEAR     35  15  44 N5        30.30R
NEW ORLEANS LA PTCLDY    57  51  80 SE7       30.21F
OKLAHOMA CITY  CLEAR     55  45  68 SE16      29.94F
ALBUQUERQUE NM CLEAR     48  15  26 SE9       30.18R
SALT LAKE CITY CLEAR     44  26  49 CALM      30.28S
LOS ANGELES CA FOG       57  57 100 NW3       30.04F VSB 1/4
BOISE ID       PTCLDY    42  29  59 SE9       30.32S
SEATTLE WA     CLOUDY    51  42  71 SE7       30.32F
$$

*** WEATHER ACROSS MANITOBA...SASKATCHEWAN AND ONTARIO ***
                ***ONTARIO***

CITY           SKY/WX    TMP DP  RH WIND       PRES   REMARKS
GERALDTON      PTCLDY    27  16  63 S10       29.66F WCI  17
THUNDER BAY    CLOUDY    36  19  51 SW9G17    29.71F
SIOUX LOOKOUT  LGT RAIN  34  27  75 S8G20     29.45F
TORONTO        CLEAR     18  10  73 SW6       30.25R WCI   9
BIG TROUT LK   LGT SNOW  32  32 100 W3        29.37F
PICKLE LAKE    NOT AVBL
DRYDEN         MIX PCPN  34  30  86 S14G22    29.42F FOG     WCI  24
KENORA         LGT RAIN  34  34 100 S12       29.42S FOG
$$
                *** MANITOBA***

CITY           SKY/WX    TMP DP  RH WIND       PRES   REMARKS
BRANDON        MOCLDY    37  34  87 NW17G28   29.65R
DAUPHIN        CLEAR     34  32  93 W8        29.67R
ISLAND LAKE    FLURRIES  32  30  93 N10       29.45R WCI  24
PILOT MOUND      N/A     36  34  93 N22G31      N/A
THE PAS        CLEAR     32  28  86 NW10      29.69R WCI  24
THOMPSON       PTCLDY    27  25  93 NW6       29.57R WCI  20
WINNIPEG       LGT RAIN  37  36  93 NW23      29.48R
LYNN LAKE      MOCLDY    28  23  80 W6        29.60S WCI  22
CHURCHILL      FLURRIES  10   7  85 NE21G32   29.63R WCI  -9
GILLAM         LGT SNOW  28  27  93 N20       29.49R WCI  15
$$
                ***SASKATCHEWAN***

CITY           SKY/WX    TMP DP  RH WIND       PRES   REMARKS
ESTEVAN        CLEAR     36  32  87 NW17G25   29.86R
KINDERSLEY     PTCLDY    32  30  93 W9        29.99S WCI  24
LLOYDMINSTER   CLEAR     32  30  93 W13       29.94R WCI  22
PRINCE ALBERT  PTCLDY    28  25  86 W8        29.85R WCI  20
REGINA         CLEAR     34  32  93 NW14      29.91R WCI  24
YORKTON        CLEAR     34  32  93 W14G23    29.78R WCI  24
N. BATTLEFORD  CLEAR     34  32  93 NW6       29.95R
LA RONGE       CLEAR     32  19  59 W7        29.78R
SASKATOON      CLEAR     34  30  86 W10       29.94R
SWIFT CURRENT  FOG       36  34  93 W13       30.00S VSB 1/4
$$
NOTE: THESE ARE AUTOMATED STATIONS WITH LIMITED QUALITY CONTROL
      "FAIR" INDICATES FEW OR NO CLOUDS BELOW 12,000 FEET WITH NO
      SIGNIFICANT WEATHER AND/OR OBSTRUCTIONS TO VISIBILITY.
      SKY/WX - SKY CONDITION AND SIGNIFICANT WEATHER.
      TMP - AIR TEMPERATURE.    DP   - DEWPOINT TEMPERATURE.
      RH  - RELATIVE HUMIDITY.  PRES - PRESSURE.
      HX  - HEAT INDEX.         WCI  - WIND CHILL INDEX.
$


USA.gov is the U.S. government's official web portal to all federal, state and local government web resources and services.